Regional Weather Roundup
Issued by NWS Green Bay, WI

Home | Current Version | Previous Version | Graphics & Text | Print | Product List | Glossary Off
Versions: 1 2 3 4 5 6 7 8 9 10 11 12 13 14 15 16 17 18 19 20 21 22 23 24 25 26 27 28 29 30 31 32 33 34 35 36 37 38 39 40 41 42 43 44 45 46 47 48 49 50

000
ASUS43 KGRB 302259
RWRGRB

NORTH-CENTRAL AND NORTHEAST WISCONSIN REGIONAL WEATHER ROUNDUP
NATIONAL WEATHER SERVICE GREEN BAY WI
600 PM CDT SAT AUG 30 2014

WIZ005-009-010>012-018-019-310000-
NORTH CENTRAL WISCONSIN

CITY           SKY/WX    TMP DP  RH WIND       PRES   REMARKS
IRONWOOD       NOT AVBL
MANITOWISH WTR NOT AVBL
ARBOR VITAE    NOT AVBL
EAGLE RIVER    NOT AVBL
LAND O LAKES   NOT AVBL
RHINELANDER    CLOUDY    61  58  90 N7        29.86S
PHILLIPS       NOT AVBL
ANTIGO         NOT AVBL
TOMAHAWK       NOT AVBL
MERRILL        NOT AVBL
$$

WIZ013-073-310000-
NORTHEAST WISCONSIN

CITY           SKY/WX    TMP DP  RH WIND       PRES   REMARKS
IRON MOUNTAIN  CLOUDY    63  58  83 NW12G22   29.81R
MARINETTE      CLOUDY    66  63  88 N10       29.77R
$$

WIZ017-030-035>037-045-310000-
CENTRAL WISCONSIN

CITY           SKY/WX    TMP DP  RH WIND       PRES   REMARKS
MEDFORD        NOT AVBL
WAUSAU         CLOUDY    68  61  78 NW8       29.83R
MOSINEE        NOT AVBL
MARSHFIELD     CLOUDY    70  63  78 N10       29.85R
WISC RAPIDS    CLOUDY    74  65  73 NW12      29.84R
STEVENS POINT  NOT AVBL
WAUPACA        NOT AVBL
SHAWANO        NOT AVBL
CLINTONVILLE   NOT AVBL
$$

WIZ038-039-048-051-310000-
FOX VALLEY

CITY           SKY/WX    TMP DP  RH WIND       PRES   REMARKS
NWS GREEN BAY  CLOUDY    73  68  84 W8        29.78R
APPLETON       PTSUNNY   72  63  73 W9        29.80R
OSHKOSH        PTSUNNY   74  67  78 NW8       29.80R
FOND DU LAC    CLOUDY    73  66  78 N7        29.81R
$$

WIZ022-050-052-310000-
EAST CENTRAL WISCONSIN

CITY           SKY/WX    TMP DP  RH WIND       PRES   REMARKS
STURGEON BAY   PTSUNNY   72  64  78 NW5       29.78R
MANITOWOC      NOT AVBL
SHEBOYGAN      LGT RAIN  70  67  90 W5        29.80R
$$

LMZ563-521-522-541>543-310000-
LAKESHORE

STATION/POSITION TIME  TEMP    WIND        PRES    VSBY  WAVE
                       AIR SEA DIR/SP/G                  HT/PER
                 (UTC) (F)     (DEG/KT/KT) (MB)    (MI)  (FT/S)
SHEBOYGAN LKSHOR 2200   75 54  240/  9/ 11 1008.1R
KEWAUNEE LKSHORE 2200   77     290/  4/  8 1006.9R
NORTHPORT PIER   2200   67     320/ 17/ 21 1007.1R
N MID LAKE BUOY  2200   67 65  220/ 14/ 16 1005.6F         4/ 6
S GREEN BAY BUOY 2200   71     VRB  2/  4  1008.9R
CHAMBERS ISLAND  2200   69     360/  7/  9 1008.1R
MENOMINEE LKSHOR 2200   71      20/  5/  5 1008.3R
$$



USA.gov is the U.S. government's official web portal to all federal, state and local government web resources and services.